PulseSat

PulseSat

GSAT0205 (PRN E24)

Last updated on Jan. 16, 2019, 2:58 a.m. UTC

1 40889U 15045A   19015.21731870 -.00000027  00000-0  00000+0 0  9998
2 40889  56.5689 296.3665 0004208   4.1404 355.8992  1.70474381 20811
UTC
Height (km)
Latitude
Longitude
Inclination
Orbital Period

Next 30 passes for location: Hong Kong

Rise time Rise Azimuth (degrees) Set time Set Azimuth (degrees) Duration Max altitude (degrees)

No matching passes for this satellites

PulseSat

PulseSat is the new satellites software and hardware trackering solution by Pulsely.
Satellite Two Line Element Set source: US Air Force Space Command

Download PulseSat for iOS
© 2017 Pulsely Limited